When you browse on this site, cookies collect data to enhance your experience and personalize the content and advertising you see.
Visit our Privacy Policy to learn more. By continuing to use the site, you agree to this use of cookies and data.
  • In Latvia
  • List of Countries
  • For 7 days
  • Water Temperature
  • Weather Map
  • Weather Widgets
  • user-avatar
    Login

    Hourly Weather Palembang

    Today, 27 February, Thursday

    Time Temperature Precipitation Wind Pressure Humidity
    00:00 +26°C° 0 mm 1 mps 757 mmHg 92%
    01:00 +27°C° 0 mm 1 mps 757 mmHg 93%
    02:00 +26°C° 0 mm 1 mps 757 mmHg 93%
    03:00 +26°C° 0 mm 1 mps 756 mmHg 94%
    04:00 +26°C° 0 mm 1 mps 756 mmHg 94%
    05:00 +26°C° 0 mm 1 mps 756 mmHg 94%
    06:00 +27°C° 0 mm 1 mps 756 mmHg 93%
    07:00 +27°C° 0 mm 1 mps 757 mmHg 91%
    08:00 +29°C° 0 mm 1 mps 757 mmHg 83%
    09:00 +30°C° 0 mm 2 mps 757 mmHg 75%
    10:00 +32°C° 0 mm 2 mps 757 mmHg 67%
    11:00 +34°C° 0.3 mm 2 mps 757 mmHg 64%
    12:00 +35°C° 0.3 mm 2 mps 756 mmHg 61%
    13:00 +36°C° 0 mm 3 mps 756 mmHg 57%
    14:00 +34°C° 1.4 mm 3 mps 755 mmHg 64%
    15:00 +33°C° 1.4 mm 3 mps 755 mmHg 71%
    16:00 +31°C° 1.4 mm 3 mps 754 mmHg 79%
    17:00 +30°C° 0.4 mm 2 mps 754 mmHg 83%
    18:00 +29°C° 0.4 mm 2 mps 755 mmHg 87%
    19:00 +28°C° 0.4 mm 1 mps 755 mmHg 91%
    20:00 +28°C° 0 mm 1 mps 756 mmHg 92%
    21:00 +28°C° 0 mm 1 mps 756 mmHg 93%
    22:00 +27°C° 0 mm 1 mps 757 mmHg 94%
    23:00 +27°C° 0 mm 1 mps 757 mmHg 95%

    Tomorrow, 28 February, Friday

    Time Temperature Precipitation Wind Pressure Humidity
    00:00 +27°C° 0 mm 1 mps 757 mmHg 96%
    01:00 +27°C° 0 mm 1 mps 756 mmHg 97%
    02:00 +26°C° 0.2 mm 1 mps 756 mmHg 97%
    03:00 +26°C° 0.2 mm 1 mps 755 mmHg 97%
    04:00 +26°C° 0.2 mm 1 mps 755 mmHg 98%
    05:00 +26°C° 0 mm 1 mps 755 mmHg 97%
    06:00 +27°C° 0 mm 1 mps 756 mmHg 96%
    07:00 +27°C° 0 mm 1 mps 756 mmHg 95%
    08:00 +29°C° 0.1 mm 1 mps 757 mmHg 87%
    09:00 +30°C° 0.1 mm 2 mps 757 mmHg 79%
    10:00 +32°C° 0.1 mm 2 mps 757 mmHg 71%
    11:00 +34°C° 0.3 mm 2 mps 756 mmHg 67%
    12:00 +35°C° 0.3 mm 2 mps 755 mmHg 62%
    13:00 +36°C° 0.3 mm 3 mps 755 mmHg 58%
    14:00 +35°C° 1.3 mm 2 mps 754 mmHg 63%
    15:00 +34°C° 1.3 mm 2 mps 753 mmHg 68%
    16:00 +34°C° 1.3 mm 2 mps 753 mmHg 73%
    17:00 +31°C° 0.4 mm 2 mps 753 mmHg 78%
    18:00 +30°C° 0.4 mm 2 mps 754 mmHg 84%
    19:00 +28°C° 0.4 mm 2 mps 755 mmHg 89%
    20:00 +28°C° 0 mm 2 mps 755 mmHg 91%
    21:00 +27°C° 0 mm 1 mps 756 mmHg 92%
    22:00 +27°C° 0 mm 1 mps 756 mmHg 93%
    23:00 +27°C° 0 mm 1 mps 756 mmHg 94%

    Day after tomorrow, 29 February, Saturday

    Time Temperature Precipitation Wind Pressure Humidity
    00:00 +27°C° 0 mm 1 mps 756 mmHg 95%
    01:00 +26°C° 0 mm 1 mps 756 mmHg 96%
    02:00 +26°C° 0 mm 1 mps 756 mmHg 96%
    03:00 +26°C° 0 mm 1 mps 755 mmHg 96%
    04:00 +26°C° 0 mm 1 mps 755 mmHg 97%
    05:00 +26°C° 0 mm 1 mps 755 mmHg 96%
    06:00 +27°C° 0 mm 1 mps 756 mmHg 94%
    07:00 +27°C° 0 mm 1 mps 756 mmHg 93%
    08:00 +28°C° 0 mm 2 mps 756 mmHg 85%
    09:00 +30°C° 0 mm 2 mps 756 mmHg 77%
    10:00 +32°C° 0 mm 2 mps 757 mmHg 69%
    11:00 +32°C° 0.6 mm 2 mps 756 mmHg 68%
    12:00 +34°C° 0.6 mm 2 mps 755 mmHg 68%
    13:00 +34°C° 0.6 mm 2 mps 754 mmHg 67%
    14:00 +34°C° 1 mm 2 mps 754 mmHg 70%
    15:00 +32°C° 1 mm 2 mps 753 mmHg 72%
    16:00 +32°C° 1 mm 2 mps 753 mmHg 75%
    17:00 +31°C° 0.5 mm 2 mps 753 mmHg 80%
    18:00 +29°C° 0.5 mm 2 mps 754 mmHg 85%
    19:00 +28°C° 0.5 mm 1 mps 754 mmHg 90%
    20:00 +27°C° 0 mm 1 mps 755 mmHg 91%
    21:00 +27°C° 0 mm 1 mps 755 mmHg 92%
    22:00 +27°C° 0 mm 1 mps 756 mmHg 93%
    23:00 +26°C° 0 mm 1 mps 756 mmHg 93%

    1 March, Sunday

    Time Temperature Precipitation Wind Pressure Humidity
    00:00 +26°C° 0 mm 1 mps 756 mmHg 94%
    01:00 +26°C° 0 mm 1 mps 756 mmHg 95%
    02:00 +26°C° 0 mm 1 mps 755 mmHg 95%
    03:00 +26°C° 0 mm 1 mps 755 mmHg 96%
    04:00 +25°C° 0 mm 1 mps 754 mmHg 96%
    05:00 +26°C° 0 mm 1 mps 755 mmHg 95%
    06:00 +26°C° 0 mm 1 mps 756 mmHg 95%
    07:00 +26°C° 0 mm 1 mps 756 mmHg 94%
    08:00 +28°C° 0 mm 1 mps 756 mmHg 87%
    09:00 +29°C° 0 mm 2 mps 756 mmHg 80%
    10:00 +31°C° 0 mm 2 mps 757 mmHg 73%
    11:00 +32°C° 0 mm 2 mps 756 mmHg 68%
    12:00 +34°C° 0 mm 2 mps 755 mmHg 63%
    13:00 +35°C° 0 mm 2 mps 755 mmHg 58%
    14:00 +35°C° 0.1 mm 2 mps 754 mmHg 60%
    15:00 +35°C° 0.1 mm 2 mps 753 mmHg 61%
    16:00 +34°C° 0.1 mm 2 mps 753 mmHg 63%
    17:00 +32°C° 0.2 mm 2 mps 754 mmHg 70%
    18:00 +30°C° 0.2 mm 2 mps 754 mmHg 78%
    19:00 +28°C° 0.2 mm 2 mps 755 mmHg 86%
    20:00 +28°C° 0 mm 2 mps 755 mmHg 87%
    21:00 +27°C° 0 mm 2 mps 756 mmHg 88%
    22:00 +27°C° 0 mm 1 mps 756 mmHg 90%
    23:00 +26°C° 0 mm 1 mps 756 mmHg 91%

    2 March, Monday

    Time Temperature Precipitation Wind Pressure Humidity
    00:00 +26°C° 0 mm 1 mps 756 mmHg 93%
    01:00 +26°C° 0 mm 1 mps 756 mmHg 94%
    02:00 +26°C° 0 mm 1 mps 756 mmHg 95%
    03:00 +26°C° 0 mm 1 mps 755 mmHg 95%
    04:00 +25°C° 0 mm 1 mps 755 mmHg 96%
    05:00 +26°C° 0 mm 1 mps 755 mmHg 95%
    06:00 +26°C° 0 mm 1 mps 756 mmHg 94%
    07:00 +26°C° 0 mm 1 mps 756 mmHg 93%
    08:00 +28°C° 0 mm 2 mps 757 mmHg 85%
    09:00 +30°C° 0 mm 2 mps 757 mmHg 76%
    10:00 +32°C° 0 mm 2 mps 757 mmHg 68%
    11:00 +34°C° 0 mm 2 mps 756 mmHg 64%
    12:00 +35°C° 0 mm 2 mps 755 mmHg 59%
    13:00 +36°C° 0 mm 2 mps 755 mmHg 54%
    14:00 +35°C° 0.1 mm 2 mps 754 mmHg 57%
    15:00 +35°C° 0.1 mm 2 mps 754 mmHg 60%
    16:00 +34°C° 0.1 mm 2 mps 753 mmHg 62%
    17:00 +32°C° 0.7 mm 2 mps 754 mmHg 71%
    18:00 +30°C° 0.7 mm 2 mps 755 mmHg 79%
    19:00 +28°C° 0.7 mm 2 mps 755 mmHg 88%
    20:00 +27°C° 0 mm 1 mps 756 mmHg 90%
    21:00 +27°C° 0 mm 1 mps 756 mmHg 92%
    22:00 +27°C° 0 mm 1 mps 757 mmHg 94%
    23:00 +26°C° 0 mm 1 mps 757 mmHg 94%

    3 March, Tuesday

    Time Temperature Precipitation Wind Pressure Humidity
    00:00 +26°C° 0 mm 1 mps 756 mmHg 95%
    01:00 +26°C° 0 mm 1 mps 756 mmHg 96%
    02:00 +26°C° 0 mm 1 mps 756 mmHg 96%
    03:00 +26°C° 0 mm 1 mps 756 mmHg 96%
    04:00 +24°C° 0 mm 0 mps 755 mmHg 97%
    05:00 +24°C° 0 mm 0 mps 756 mmHg 96%
    06:00 +24°C° 0 mm 0 mps 756 mmHg 95%
    07:00 +25°C° 0 mm 0 mps 756 mmHg 93%
    08:00 +28°C° 0 mm 1 mps 757 mmHg 86%
    09:00 +30°C° 0 mm 2 mps 757 mmHg 78%
    10:00 +32°C° 0 mm 2 mps 757 mmHg 71%
    11:00 +34°C° 0.1 mm 2 mps 756 mmHg 66%
    12:00 +35°C° 0.1 mm 2 mps 756 mmHg 60%
    13:00 +36°C° 0.1 mm 2 mps 755 mmHg 55%
    14:00 +36°C° 0.1 mm 2 mps 754 mmHg 56%
    15:00 +35°C° 0.1 mm 2 mps 754 mmHg 57%
    16:00 +35°C° 0.1 mm 2 mps 753 mmHg 57%
    17:00 +32°C° 0 mm 2 mps 754 mmHg 65%
    18:00 +30°C° 0 mm 2 mps 755 mmHg 72%
    19:00 +29°C° 0 mm 2 mps 756 mmHg 79%
    20:00 +28°C° 0 mm 2 mps 756 mmHg 81%
    21:00 +28°C° 0 mm 2 mps 757 mmHg 84%
    22:00 +27°C° 0 mm 1 mps 757 mmHg 86%
    23:00 +27°C° 0 mm 1 mps 757 mmHg 88%
    Show more